This is the latest recevied weather packets stored in our database for station/object K5IDL. If no packets are shown the sender has not sent any weather packets the latest 10 day(s).
| Time | Temp. | Humidity | Pressure | Rain* | Wind** | Luminosity | Snow |
|---|---|---|---|---|---|---|---|
| 1778074818 | 12.78° C | 83% | 1014.6 hPa | 0 mm | - | 32 W/m² | - |
| 1778074515 | 12.22° C | 84% | 1014.5 hPa | 0 mm | - | 43 W/m² | - |
| 1778074212 | 12.22° C | 84% | 1014.5 hPa | 0 mm | - | 23 W/m² | - |
| 1778073909 | 12.22° C | 85% | 1014.3 hPa | 0 mm | - | 20 W/m² | - |
| 1778073607 | 12.22° C | 85% | 1014.4 hPa | 0 mm | - | 20 W/m² | - |
| 1778073304 | 12.22° C | 86% | 1014.2 hPa | 0 mm | - | 16 W/m² | - |
| 1778073000 | 12.22° C | 85% | 1014.3 hPa | 0 mm | - | 16 W/m² | - |
| 1778072697 | 12.22° C | 86% | 1014.3 hPa | 0 mm | - | 14 W/m² | - |
| 1778072394 | 12.22° C | 86% | 1014.3 hPa | 0 mm | - | 13 W/m² | - |
| 1778072093 | 12.22° C | 85% | 1014.3 hPa | 0 mm | - | 12 W/m² | - |
| 1778071790 | 11.67° C | 86% | 1014.3 hPa | 0 mm | - | 10 W/m² | - |
| 1778071488 | 12.22° C | 85% | 1014.1 hPa | 0 mm | - | 8 W/m² | - |
| 1778071186 | 12.22° C | 85% | 1013.9 hPa | 0 mm | - | 8 W/m² | - |
| 1778070883 | 12.22° C | 85% | 1014.1 hPa | 0 mm | - | 6 W/m² | - |
| 1778070580 | 12.22° C | 84% | 1014.2 hPa | 0 mm | - | 5 W/m² | - |
| 1778070277 | 12.22° C | 84% | 1013.9 hPa | 0 mm | - | 6 W/m² | - |
| 1778069976 | 12.22° C | 84% | 1013.9 hPa | 0 mm | - | 6 W/m² | - |
| 1778069672 | 12.22° C | 84% | 1014 hPa | 0 mm | - | 5 W/m² | - |
| 1778069369 | 12.22° C | 84% | 1013.9 hPa | 0 mm | - | 4 W/m² | - |
| 1778069067 | 12.22° C | 84% | 1014 hPa | 0 mm | - | 3 W/m² | - |
| 1778068764 | 12.22° C | 84% | 1013.8 hPa | 0 mm | - | 2 W/m² | - |
| 1778068462 | 12.22° C | 84% | 1013.3 hPa | 0 mm | - | 2 W/m² | - |
| 1778068160 | 12.78° C | 88% | 1013.7 hPa | 0 mm | - | 1 W/m² | - |
| 1778067857 | 12.78° C | 84% | 1013.7 hPa | 0 mm | - | 1 W/m² | - |
| 1778067556 | 12.78° C | 83% | 1013.4 hPa | 0 mm | - | 0 W/m² | - |
* Rain latest hour (hover to see other rain measurements)
** Current wind speed in m/s (hover to see current wind gust speed)